QPF
0.00 0.00 0.00 0.00 0.00 0.00 0.00 0.00 0.00 0.00 0.00 0.00 0.00 0.00 0.00 0.00 0.00 0.00 0.01 0.01 0.00 0.00
0.00 0.00 0.00 0.00 0.00 0.00 0.00 0.00 0.00 0.00 0.00 0.00 0.00 0.00 0.00 0.00 0.00 0.00 0.01 0.02 0.01 0.01
0.00 0.00 0.00 0.00 0.00 0.00 0.00 0.00 0.00 0.00 0.00 0.00 0.00 0.00 0.00 0.00 0.00 0.00 0.00 0.01 0.02 0.02
0.00 0.00 0.00 0.00 0.00 0.00 0.00 0.00 0.00 0.00 0.00 0.00 0.00 0.00 0.00 0.00 0.00 0.00 0.00 0.00 0.00 0.00
0.00 0.00 0.00 0.00 0.00 0.00 0.00 0.00 0.00 0.00 0.00 0.00 0.00 0.00 0.00 0.00 0.00 0.00 0.00 0.00 0.00 0.00
0.00 0.00 0.00 0.00 0.00 0.00 0.00 0.00 0.00 0.00 0.00 0.00 0.00 0.00 0.00 0.00 0.00 0.00 0.00 0.00 0.00 0.00
0.00 0.00 0.00 0.00 0.00 0.00 0.00 0.00 0.00 0.00 0.00 0.00 0.00 0.00 0.00 0.00 0.00 0.00 0.00 0.00 0.00 0.00
0.00 0.00 0.00 0.00 0.00 0.00 0.00 0.00 0.00 0.00 0.00 0.00 0.00 0.00 0.00 0.00 0.00 0.00 0.00 0.00 0.00 0.00
0.00 0.00 0.00 0.00 0.00 0.00 0.00 0.00 0.00 0.00 0.00 0.00 0.00 0.00 0.00 0.00 0.00 0.00 0.00 0.00 0.00 0.00
0.00 0.00 0.00 0.00 0.00 0.00 0.00 0.00 0.00 0.00 0.00 0.00 0.00 0.00 0.00 0.00 0.00 0.00 0.00 0.00 0.00 0.00
0.00 0.00 0.00 0.00 0.00 0.00 0.00 0.00 0.00 0.00 0.00 0.00 0.00 0.00 0.00 0.00 0.00 0.00 0.00 0.00 0.00 0.00
0.00 0.00 0.00 0.00 0.00 0.00 0.00 0.00 0.00 0.00 0.00 0.00 0.00 0.00 0.00 0.00 0.00 0.00 0.00 0.00 0.00 0.00
0.00 0.00 0.00 0.00 0.00 0.00 0.00 0.00 0.00 0.00 0.00 0.00 0.00 0.00 0.00 0.00 0.00 0.00 0.00 0.00 0.00 0.00
0.00 0.00 0.00 0.00 0.00 0.00 0.00 0.00 0.00 0.00 0.00 0.00 0.00 0.00 0.00 0.00 0.00 0.00 0.00 0.00 0.00 0.00
MSLP
1019.05 1019.15 1019.15 1019.29 1019.22 1018.92 1018.74 1018.33 1017.91 1017.70 1017.49 1017.13 1016.97 1017.01 1017.01 1016.82 1016.51 1016.15 1015.69 1015.29 1014.97 1014.95
1019.08 1019.07 1019.00 1019.21 1019.03 1018.71 1018.47 1018.03 1017.84 1017.61 1017.39 1017.03 1016.74 1016.53 1016.60 1016.59 1016.34 1015.92 1015.61 1015.13 1014.85 1014.75
1019.16 1019.06 1019.02 1018.95 1018.80 1018.42 1018.17 1017.96 1017.80 1017.53 1017.22 1016.96 1016.69 1016.61 1016.60 1016.36 1016.08 1015.89 1015.35 1014.84 1014.46 1014.30
1019.15 1019.05 1019.08 1019.07 1018.81 1018.43 1018.26 1018.05 1017.78 1017.47 1017.22 1016.90 1016.64 1016.47 1016.37 1016.11 1015.67 1015.25 1015.01 1014.65 1014.26 1014.01
1019.30 1019.18 1019.12 1019.11 1018.77 1018.52 1018.45 1018.16 1017.82 1017.59 1017.48 1017.10 1016.74 1016.42 1016.09 1015.65 1015.35 1015.04 1014.60 1014.24 1014.03 1013.74
1019.37 1019.27 1019.22 1019.23 1018.86 1018.68 1018.60 1018.35 1018.01 1017.77 1017.43 1016.99 1016.62 1016.24 1015.78 1015.34 1014.93 1014.47 1014.13 1013.85 1013.60 1013.41
1019.54 1019.49 1019.39 1019.37 1019.01 1018.87 1018.70 1018.37 1018.07 1017.72 1017.32 1016.87 1016.62 1016.22 1015.82 1015.31 1014.71 1014.04 1013.67 1013.38 1013.20 1013.06
1019.73 1019.76 1019.60 1019.63 1019.18 1018.95 1018.62 1018.33 1018.14 1017.77 1017.37 1017.09 1016.80 1016.32 1015.92 1015.24 1014.61 1014.20 1013.69 1013.72 1013.49 1013.31
1019.87 1019.79 1019.77 1019.61 1019.29 1018.91 1018.59 1018.46 1018.28 1017.94 1017.73 1017.26 1016.89 1016.46 1015.81 1015.32 1014.97 1014.39 1014.45 1014.30 1013.97 1013.78
1019.90 1019.91 1019.98 1019.68 1019.27 1018.83 1018.73 1018.72 1018.44 1018.20 1017.84 1017.38 1016.94 1016.48 1015.98 1015.64 1015.34 1015.09 1015.09 1014.68 1014.32 1014.17
1020.05 1020.12 1020.03 1019.65 1019.29 1018.91 1018.94 1018.82 1018.60 1018.34 1017.95 1017.49 1017.12 1016.68 1016.26 1015.95 1015.51 1015.42 1015.34 1015.16 1014.94 1014.94
1020.10 1020.18 1019.94 1019.64 1019.42 1019.19 1019.03 1018.90 1018.71 1018.43 1018.06 1017.67 1017.32 1016.95 1016.65 1016.34 1015.98 1015.91 1015.77 1015.80 1015.71 1015.51
1020.00 1020.09 1019.91 1019.67 1019.56 1019.33 1019.12 1019.06 1018.77 1018.48 1018.28 1017.97 1017.59 1017.17 1016.89 1016.42 1016.40 1016.43 1016.48 1016.42 1016.26 1016.25
1019.86 1020.02 1019.86 1019.68 1019.54 1019.33 1018.94 1018.81 1018.65 1018.48 1018.39 1018.13 1017.74 1017.53 1017.17 1016.75 1016.68 1016.80 1016.86 1016.87 1016.89 1016.95
Thickness
5534 5533 5532 5530 5530 5531 5531 5533 5535 5536 5537 5538 5538 5537 5535 5535 5536 5537 5539 5541 5541 5539
5524 5524 5524 5521 5522 5523 5524 5526 5526 5526 5527 5528 5529 5529 5528 5526 5526 5528 5527 5528 5527 5525
5512 5513 5513 5513 5513 5515 5516 5516 5516 5517 5518 5518 5519 5519 5517 5517 5517 5515 5516 5517 5516 5513
5500 5501 5501 5500 5502 5504 5504 5505 5506 5507 5508 5508 5509 5509 5508 5508 5509 5509 5507 5505 5504 5501
5488 5489 5489 5488 5491 5492 5491 5493 5495 5495 5494 5496 5498 5500 5500 5501 5500 5499 5498 5496 5493 5492
5475 5477 5477 5476 5479 5479 5479 5480 5482 5483 5485 5488 5490 5492 5493 5495 5495 5494 5491 5486 5484 5483
5462 5463 5463 5463 5465 5466 5467 5469 5471 5474 5477 5480 5481 5482 5484 5486 5488 5488 5484 5481 5481 5478
5450 5449 5449 5448 5452 5454 5458 5460 5461 5464 5468 5469 5470 5473 5475 5479 5481 5480 5479 5474 5473 5469
5437 5437 5437 5438 5441 5445 5448 5449 5450 5453 5455 5459 5461 5464 5468 5471 5472 5472 5468 5465 5465 5463
5426 5425 5424 5427 5432 5436 5437 5437 5440 5443 5446 5450 5453 5456 5459 5462 5462 5461 5458 5459 5459 5457
5415 5413 5413 5418 5422 5427 5427 5429 5431 5434 5437 5442 5445 5448 5451 5453 5455 5453 5452 5451 5451 5447
5406 5404 5406 5410 5412 5416 5419 5421 5423 5426 5429 5433 5436 5439 5442 5443 5445 5444 5444 5442 5441 5440
5399 5398 5400 5403 5404 5408 5411 5412 5416 5419 5421 5424 5428 5432 5434 5437 5436 5435 5433 5432 5432 5430
5393 5392 5394 5397 5399 5402 5406 5409 5410 5412 5414 5417 5422 5424 5427 5429 5429 5427 5425 5424 5422 5420